Milas, Turkey

1:22 AM EEST on September 29, 2016 (GMT +0300)
Bodrum

Weather History for LTFE - August, 2013

Change the Weather History Date:

Thursday, August 29, 2013

  Actual Average (LGKO) Record (LGKO)
Temperature  
Mean Temperature 80 °F -  
Max Temperature 95 °F 84 °F 91 °F (2003)
Min Temperature 64 °F 71 °F 69 °F (1997)
Cooling Degree Days 14    
Growing Degree Days 30 (Base 50)    
Moisture  
Dew Point 62 °F    
Average Humidity 57    
Maximum Humidity 88    
Minimum Humidity 25    
Precipitation  
Precipitation 0.00 in - - ()
Sea Level Pressure  
Sea Level Pressure 29.78 in    
Wind  
Wind Speed 7 mph ()    
Max Wind Speed 23 mph    
Max Gust Speed -    
Visibility 6.2 miles    
Events      
Averages and records for this station are not official NWS values.
T = Trace of Precipitation, MM = Missing Value Source: Averaged Metar Reports

Daily Weather History Graph

Daily Weather History Graph

Search for Another Location

Airport or City:

Trip Planner

Search our weather history database for the weather conditions in past years. The results will help you decide how hot, cold, wet, or windy it might be!

Date:

Astronomy

Aug. 29, 2013 Rise Set
Actual Time 6:37 AM EEST 7:42 PM EEST
Civil Twilight 6:10 AM EEST 8:09 PM EEST
Nautical Twilight 5:38 AM EEST 8:41 PM EEST
Astronomical Twilight 5:05 AM EEST 9:14 PM EEST
Moon 12:18 AM EEST (8/29) 2:51 PM EEST (8/29)
Length of Visible Light 13h 58m
Length of Day
13h 05m
Last Quarter, 41% of the Moon is Illuminated
Aug 29
Last Quarter
Sep 5
New
Sep 12
First Quarter
Sep 19
Full
Sep 27
Last Quarter

Hourly Weather History & Observations

Time (EEST) Temp. Heat Index Dew Point Humidity Pressure Visibility Wind Dir Wind Speed Gust Speed Precip Events Conditions
12:20 AM 71.6 °F - 62.6 °F 73% 29.80 in - East 3.5 mph - N/A   Clear
12:50 AM 69.8 °F - 60.8 °F 73% 29.80 in - SE 5.8 mph - N/A   Clear
1:20 AM 69.8 °F - 60.8 °F 73% 29.80 in - South 3.5 mph - N/A   Clear
1:50 AM 69.8 °F - 60.8 °F 73% 29.80 in - NW 6.9 mph - N/A   Clear
2:20 AM 71.6 °F - 60.8 °F 69% 29.80 in - SW 3.5 mph - N/A   Clear
2:50 AM 68.0 °F - 60.8 °F 78% 29.80 in - SE 4.6 mph - N/A   Clear
3:20 AM 69.8 °F - 62.6 °F 78% 29.80 in - SE 6.9 mph - N/A   Clear
3:50 AM 69.8 °F - 60.8 °F 73% 29.80 in - SE 4.6 mph - N/A   Clear
4:20 AM 66.2 °F - 60.8 °F 83% 29.80 in - NW 3.5 mph - N/A   Clear
4:50 AM 68.0 °F - 60.8 °F 78% 29.80 in - Variable 2.3 mph - N/A   Clear
5:20 AM 68.0 °F - 60.8 °F 78% 29.80 in - SSE 4.6 mph - N/A   Clear
5:50 AM 66.2 °F - 60.8 °F 83% 29.80 in - ESE 6.9 mph - N/A   Clear
6:20 AM 66.2 °F - 60.8 °F 83% 29.80 in - SE 4.6 mph - N/A   Clear
6:50 AM 64.4 °F - 60.8 °F 88% 29.80 in - Variable 2.3 mph - N/A   Clear
7:20 AM 68.0 °F - 60.8 °F 78% 29.80 in - SSE 4.6 mph - N/A   Clear
7:50 AM 69.8 °F - 60.8 °F 73% 29.80 in - Variable 1.2 mph - N/A   Clear
8:20 AM 73.4 °F - 62.6 °F 69% 29.80 in - East 2.3 mph - N/A   Clear
8:50 AM 78.8 °F - 62.6 °F 57% 29.80 in - Variable 1.2 mph - N/A   Clear
9:20 AM 80.6 °F 81.5 °F 60.8 °F 51% 29.80 in - WNW 3.5 mph - N/A   Clear
9:50 AM 82.4 °F 83.9 °F 64.4 °F 54% 29.80 in - WNW 4.6 mph - N/A   Clear
10:20 AM 86.0 °F 88.2 °F 66.2 °F 51% 29.80 in 5.6 mi WNW 5.8 mph - N/A   Unknown
10:50 AM 87.8 °F 89.4 °F 64.4 °F 46% 29.80 in - NW 4.6 mph - N/A   Clear
11:20 AM 89.6 °F 90.1 °F 62.6 °F 40% 29.80 in - WNW 6.9 mph - N/A   Clear
11:50 AM 91.4 °F 92.1 °F 62.6 °F 38% 29.80 in - West 9.2 mph - N/A   Clear
12:20 PM 91.4 °F 93.2 °F 64.4 °F 41% 29.80 in - WNW 9.2 mph - N/A   Clear
12:50 PM 93.2 °F 91.9 °F 57.2 °F 30% 29.80 in - West 13.8 mph - N/A   Clear
1:20 PM 95.0 °F 92.7 °F 53.6 °F 25% 29.77 in 6.2 mi West 16.1 mph - N/A   Partly Cloudy
1:50 PM 95.0 °F 93.0 °F 55.4 °F 26% 29.77 in 6.2 mi WSW 13.8 mph - N/A   Partly Cloudy
2:20 PM 95.0 °F 94.4 °F 59.0 °F 30% 29.77 in 6.2 mi SW 11.5 mph - N/A   Partly Cloudy
2:50 PM 95.0 °F 94.4 °F 59.0 °F 30% 29.77 in 6.2 mi WSW 19.6 mph - N/A   Partly Cloudy
3:20 PM 93.2 °F 93.3 °F 60.8 °F 34% 29.74 in 6.2 mi WSW 19.6 mph - N/A   Partly Cloudy
3:50 PM 93.2 °F 93.3 °F 60.8 °F 34% 29.74 in 6.2 mi WSW 21.9 mph - N/A   Partly Cloudy
4:20 PM 93.2 °F 93.3 °F 60.8 °F 34% 29.74 in 6.2 mi West 23.0 mph - N/A   Partly Cloudy
4:50 PM 95.0 °F 94.4 °F 59.0 °F 30% 29.74 in 6.2 mi WSW 17.3 mph - N/A   Partly Cloudy
5:20 PM 93.2 °F 92.6 °F 59.0 °F 32% 29.74 in 6.2 mi West 19.6 mph - N/A   Partly Cloudy
5:50 PM 93.2 °F 93.3 °F 60.8 °F 34% 29.74 in 6.2 mi WSW 16.1 mph - N/A   Partly Cloudy
6:20 PM 89.6 °F 90.1 °F 62.6 °F 40% 29.74 in 6.2 mi WSW 13.8 mph - N/A   Partly Cloudy
6:50 PM 87.8 °F 91.4 °F 68.0 °F 52% 29.74 in 6.2 mi South 6.9 mph - N/A   Partly Cloudy
7:20 PM 86.0 °F 89.4 °F 68.0 °F 55% 29.74 in - South 9.2 mph - N/A   Clear
7:50 PM 84.2 °F 87.3 °F 68.0 °F 58% 29.77 in - South 8.1 mph - N/A   Clear
8:20 PM 82.4 °F 85.4 °F 68.0 °F 62% 29.77 in - South 9.2 mph - N/A   Clear
8:50 PM 82.4 °F 85.4 °F 68.0 °F 62% 29.77 in - SSW 8.1 mph - N/A   Clear
9:20 PM 80.6 °F 83.2 °F 68.0 °F 65% 29.80 in - South 10.4 mph - N/A   Clear
9:50 PM 80.6 °F 83.2 °F 68.0 °F 65% 29.80 in - South 8.1 mph - N/A   Clear
10:20 PM 80.6 °F 82.7 °F 66.2 °F 61% 29.80 in - SSE 8.1 mph - N/A   Clear
10:50 PM 78.8 °F - 66.2 °F 65% 29.80 in - SSE 6.9 mph - N/A   Clear
11:20 PM 77.0 °F - 66.2 °F 69% 29.80 in - SE 8.1 mph - N/A   Clear
11:50 PM 77.0 °F - 64.4 °F 65% 29.80 in - ESE 4.6 mph - N/A   Clear